Volver al catálogo

FENGYUN 1C DEB

ActivoSSO
NORAD 31769·DEBRIS·🇨🇳 China

Lanzado May 10, 1999 desde Taiyuan Satellite Launch Center

Loading…

Próximos Pases (próximas 24 horas)

TLE

ActualizadoSource: Space-Track

Época: Sep 14, 2026, 06:34 UTC

1 31769U 99025CFU 26257.27382727  .00006015  00000-0  18152-2 0  9992
2 31769  98.4312 264.1397 0064708 352.6050   7.4179 14.41600762680972

Sigue FENGYUN 1C DEB en tiempo real con AllMySat

Download on the App Store